Indianapolis, IN

4:25 AM EST on November 18, 2019 (GMT -0500)
Indianapolis International

Weather History for KIND - July, 2019

Change the Weather History Date:

Wednesday, July 24, 2019

  Actual Average Record
Temperature  
Mean Temperature 69 °F 75 °F  
Max Temperature 79 °F 85 °F 105 °F (1934)
Min Temperature 59 °F 66 °F 52 °F (1947)
Degree Days  
Heating Degree Days 0 0  
Month to date heating degree days 0  
Since 1 June heating degree days 16  
Since 1 July heating degree days 0  
Cooling Degree Days 4 10  
Month to date cooling degree days 255  
Year to date cooling degree days 565  
Since 1 June cooling degree days 481  
Growing Degree Days 19 (Base 50)    
Moisture  
Dew Point 52 °F    
Average Humidity 53    
Maximum Humidity 83    
Minimum Humidity 24    
Precipitation  
Precipitation 0.00 in 0.14 in 1.98 in (1933)
Month to date precipitation 3.67  
Year to date precipitation 25.32  
Snow  
Snow 0.00 in 0.00 in 0.00 in ()
Month to date snowfall 0.0  
Since 1 June snowfall 0.0  
Since 1 July snowfall 0.0  
Snow Depth -    
Sea Level Pressure  
Sea Level Pressure 30.12 in    
Wind  
Wind Speed 8 mph (NNW)    
Max Wind Speed 13 mph    
Max Gust Speed 23 mph    
Visibility 10 miles    
Events      
T = Trace of Precipitation, MM = Missing Value Source: NWS Daily Summary

Daily Weather History Graph

Daily Weather History Graph

Search for Another Location

Airport or City:

Astronomy

Jul. 24, 2019 Rise Set
Actual Time 6:36 AM EDT 9:05 PM EDT
Civil Twilight 6:06 AM EDT 9:36 PM EDT
Nautical Twilight 5:27 AM EDT 10:14 PM EDT
Astronomical Twilight 4:44 AM EDT 10:57 PM EDT
Moon 12:54 AM EDT (7/24) 1:46 PM EDT (7/24)
Length of Visible Light 15h 30m
Length of Day
14h 29m
Waning Gibbous, 54% of the Moon is Illuminated
Jul 24
Waning Gibbous
Jul 24
Last Quarter
Jul 31
New
Aug 7
First Quarter
Aug 15
Full

Hourly Weather History & Observations

Time (EDT) Temp. Dew Point Humidity Pressure Visibility Wind Dir Wind Speed Gust Speed Precip Events Conditions
12:54 AM 64.0 °F 54.0 °F 70% 30.08 in 10.0 mi NNW 6.9 mph - N/A   Clear
2:54 AM 61.0 °F 53.1 °F 75% 30.08 in 10.0 mi NNW 8.1 mph - N/A   Clear
3:54 AM 59.0 °F 53.1 °F 81% 30.07 in 10.0 mi NW 5.8 mph - N/A   Clear
4:54 AM 60.1 °F 53.1 °F 78% 30.08 in 10.0 mi NNW 8.1 mph - N/A   Clear
5:54 AM 60.1 °F 53.1 °F 78% 30.09 in 10.0 mi NNW 10.4 mph - N/A   Clear
6:54 AM 59.0 °F 54.0 °F 83% 30.11 in 10.0 mi NNW 9.2 mph - N/A   Clear
7:54 AM 62.1 °F 55.0 °F 78% 30.12 in 10.0 mi North 6.9 mph - N/A   Clear
8:54 AM 66.0 °F 55.9 °F 70% 30.14 in 10.0 mi North 8.1 mph - N/A   Clear
9:54 AM 70.0 °F 55.9 °F 61% 30.16 in 10.0 mi North 8.1 mph - N/A   Clear
10:54 AM 73.0 °F 57.0 °F 57% 30.16 in 10.0 mi NNE 6.9 mph - N/A   Partly Cloudy
11:54 AM 75.0 °F 55.9 °F 51% 30.16 in 10.0 mi NNW 10.4 mph - N/A   Partly Cloudy
12:54 PM 75.9 °F 52.0 °F 43% 30.15 in 10.0 mi NNW 12.7 mph 23.0 mph N/A   Partly Cloudy
1:54 PM 78.1 °F 48.9 °F 36% 30.14 in 10.0 mi NNW 12.7 mph 23.0 mph N/A   Partly Cloudy
2:54 PM 79.0 °F 46.0 °F 31% 30.13 in 10.0 mi NNW 12.7 mph 19.6 mph N/A   Partly Cloudy
3:54 PM 78.1 °F 48.9 °F 36% 30.12 in 10.0 mi NW 11.5 mph - N/A   Partly Cloudy
4:54 PM 79.0 °F 48.9 °F 35% 30.11 in 10.0 mi NNW 9.2 mph - N/A   Partly Cloudy
5:54 PM 79.0 °F 48.9 °F 35% 30.10 in 10.0 mi NNW 10.4 mph - N/A   Partly Cloudy
6:54 PM 77.0 °F 50.0 °F 39% 30.11 in 10.0 mi NNW 10.4 mph 19.6 mph N/A   Partly Cloudy
7:54 PM 75.9 °F 50.0 °F 40% 30.11 in 10.0 mi NNW 10.4 mph - N/A   Partly Cloudy
8:54 PM 73.9 °F 51.1 °F 45% 30.12 in 10.0 mi North 6.9 mph - N/A   Partly Cloudy
9:54 PM 72.0 °F 51.1 °F 48% 30.13 in 10.0 mi NNE 4.6 mph - N/A   Partly Cloudy
10:54 PM 70.0 °F 52.0 °F 53% 30.13 in 10.0 mi NNE 5.8 mph - N/A   Clear
11:54 PM 69.1 °F 52.0 °F 54% 30.13 in 10.0 mi NE 5.8 mph - N/A   Clear